Weather History for Gainesville, FL

Change the Weather History Date:

Sunday, October 6, 2013

  Actual Average Record
Temperature  
Mean Temperature 79 °F 74 °F  
Max Temperature 89 °F 84 °F 93 °F (1951)
Min Temperature 68 °F 64 °F 48 °F (1979)
Degree Days  
Heating Degree Days 0 0  
Month to date heating degree days 0 0  
Since 1 July heating degree days 0 0  
Cooling Degree Days 14 9  
Month to date cooling degree days 77 58  
Year to date cooling degree days 2578 2398  
Growing Degree Days 28 (Base 50)    
Moisture  
Dew Point 70 °F    
Average Humidity 75    
Maximum Humidity 100    
Minimum Humidity 50    
Precipitation  
Precipitation 0.00 in 0.11 in 2.35 in (2005)
Month to date precipitation 0.02 0.76  
Year to date precipitation 39.92 40.75  
Snow  
Snow 0.00 in 0.00 in 0.00 in ()
Month to date snowfall 0.0 0.0  
Since 1 July snowfall 0.0 0.0  
Since 1 September snowfall 0.0 0.0  
Snow Depth 0.00 in    
Sea Level Pressure  
Sea Level Pressure 29.96 in    
Wind  
Wind Speed 4 mph (SE)    
Max Wind Speed 15 mph    
Max Gust Speed 18 mph    
Visibility 6 miles    
Events      
T = Trace of Precipitation, MM = Missing Value Source: NWS Daily Summary

Daily Weather History Graph

Daily Weather History Graph

Search for Another Location

Airport:

Trip Planner

Search our weather history database for the weather conditions in past years. The results will help you decide how hot, cold, wet, or windy it might be!

Date:

Astronomy

Oct. 06, 2013 Rise Set
Actual Time 7:25 AM EDT 7:08 PM EDT
Civil Twilight 7:01 AM EDT 7:32 PM EDT
Nautical Twilight 6:33 AM EDT 7:59 PM EDT
Astronomical Twilight 6:06 AM EDT 8:27 PM EDT
Moon 8:58 AM EDT (10/6) 8:18 PM EDT (10/6)
Length of Visible Light 12h 30m
Length of Day
11h 42m
Waxing Crescent, 3% of the Moon is Illuminated
Oct 6
Waxing Crescent
Oct 11
First Quarter
Oct 18
Full
Oct 26
Last Quarter
Nov 3
New

Hourly Weather History & Observations

Time (EDT) Temp. Heat Index Dew Point Humidity Pressure Visibility Wind Dir Wind Speed Gust Speed Precip Events Conditions
12:53 AM 72.0 °F - 70.0 °F 93% 30.01 in 2.5 mi Calm Calm - N/A   Clear
1:07 AM 71.6 °F - 69.8 °F 94% 30.02 in 10.0 mi Calm Calm - N/A   Clear
1:43 AM 71.6 °F - 69.8 °F 94% 30.01 in 1.8 mi Calm Calm - N/A   Partly Cloudy
1:48 AM 71.6 °F - 69.8 °F 94% 30.01 in 0.8 mi Calm Calm - N/A   Mist
1:53 AM 71.1 °F - 70.0 °F 96% 30.00 in 0.8 mi Calm Calm - N/A   Mist
2:02 AM 69.8 °F - 69.8 °F 100% 30.00 in 1.2 mi Calm Calm - N/A   Partly Cloudy
2:04 AM 69.8 °F - 68.0 °F 94% 30.00 in 4.0 mi Calm Calm - N/A   Partly Cloudy
2:40 AM 71.6 °F - 69.8 °F 94% 29.99 in 1.8 mi Calm Calm - N/A   Clear
2:53 AM 71.1 °F - 70.0 °F 96% 29.98 in 1.8 mi Calm Calm - N/A   Clear
3:01 AM 69.8 °F - 68.0 °F 94% 29.98 in 3.0 mi Calm Calm - N/A   Clear
3:53 AM 69.1 °F - 68.0 °F 96% 29.96 in 9.0 mi Calm Calm - N/A   Clear
4:05 AM 71.6 °F - 69.8 °F 94% 29.97 in 2.5 mi Calm Calm - N/A   Partly Cloudy
4:09 AM 69.8 °F - 69.8 °F 100% 29.97 in 1.0 mi Calm Calm - N/A   Mist
4:17 AM 69.8 °F - 69.8 °F 100% 29.97 in 0.8 mi Calm Calm - N/A   Mist
4:34 AM 69.8 °F - 69.8 °F 100% 29.96 in 1.0 mi Calm Calm - N/A   Mist
4:40 AM 69.8 °F - 69.8 °F 100% 29.96 in 0.8 mi Calm Calm - N/A   Mist
4:42 AM 69.8 °F - 68.0 °F 94% 29.96 in 1.0 mi Calm Calm - N/A   Mist
4:48 AM 68.0 °F - 66.2 °F 94% 29.96 in 4.0 mi Calm Calm - N/A   Mostly Cloudy
4:53 AM 68.0 °F - 66.9 °F 96% 29.95 in 9.0 mi Calm Calm - N/A   Mostly Cloudy
5:00 AM 68.0 °F - 66.2 °F 94% 29.96 in 10.0 mi Calm Calm - N/A   Scattered Clouds
5:38 AM 69.8 °F - 69.8 °F 100% 29.96 in 10.0 mi Calm Calm - N/A   Mostly Cloudy
5:53 AM 70.0 °F - 69.1 °F 97% 29.96 in 2.5 mi Calm Calm - N/A   Scattered Clouds
5:57 AM 69.8 °F - 69.8 °F 100% 29.97 in 1.0 mi Calm Calm - N/A   Mist
6:00 AM 69.8 °F - 69.8 °F 100% 29.97 in 0.8 mi Calm Calm - N/A   Scattered Clouds
6:08 AM 69.8 °F - 68.0 °F 94% 29.97 in 2.0 mi Calm Calm - N/A   Partly Cloudy
6:15 AM 69.8 °F - 68.0 °F 94% 29.97 in 10.0 mi Calm Calm - N/A   Partly Cloudy
6:53 AM 68.0 °F - 66.9 °F 96% 29.97 in 6.0 mi Calm Calm - N/A   Clear
7:53 AM 69.1 °F - 68.0 °F 96% 29.98 in 9.0 mi Calm Calm - N/A   Partly Cloudy
8:02 AM 69.8 °F - 68.0 °F 94% 29.98 in 9.0 mi Calm Calm - N/A   Mostly Cloudy
8:50 AM 73.4 °F - 73.4 °F 100% 29.98 in 10.0 mi ENE 3.5 mph - N/A   Scattered Clouds
8:53 AM 75.0 °F - 73.0 °F 94% 29.98 in 10.0 mi ENE 4.6 mph - N/A   Scattered Clouds
9:53 AM 79.0 °F - 73.9 °F 84% 29.99 in 10.0 mi ESE 5.8 mph - N/A   Clear
10:53 AM 81.0 °F 85.2 °F 72.0 °F 74% 29.99 in 10.0 mi SE 9.2 mph - N/A   Scattered Clouds
11:05 AM 82.4 °F 88.2 °F 73.4 °F 74% 29.99 in 10.0 mi Variable 6.9 mph - N/A   Mostly Cloudy
11:17 AM 84.2 °F 89.6 °F 71.6 °F 66% 29.99 in 10.0 mi ESE 9.2 mph - N/A   Scattered Clouds
11:53 AM 84.9 °F 88.8 °F 69.1 °F 59% 29.98 in 10.0 mi SE 10.4 mph - N/A   Partly Cloudy
12:53 PM 86.0 °F 90.1 °F 69.1 °F 57% 29.96 in 10.0 mi SE 6.9 mph - N/A   Partly Cloudy
1:53 PM 88.0 °F 92.1 °F 69.1 °F 53% 29.93 in 10.0 mi SSW 6.9 mph - N/A   Scattered Clouds
2:53 PM 88.0 °F 91.4 °F 68.0 °F 51% 29.90 in 10.0 mi SSE 6.9 mph - N/A   Scattered Clouds
3:53 PM 89.1 °F 92.9 °F 68.0 °F 50% 29.88 in 10.0 mi SW 6.9 mph - N/A   Partly Cloudy
4:53 PM 87.1 °F 90.6 °F 68.0 °F 53% 29.87 in 10.0 mi SSW 6.9 mph - N/A   Partly Cloudy
5:53 PM 87.1 °F 90.6 °F 68.0 °F 53% 29.86 in 10.0 mi South 5.8 mph - N/A   Clear
6:53 PM 82.9 °F 87.5 °F 71.1 °F 67% 29.88 in 10.0 mi Calm Calm - N/A   Scattered Clouds
7:53 PM 81.0 °F 84.9 °F 71.1 °F 72% 29.88 in 10.0 mi Calm Calm - N/A   Mostly Cloudy
8:53 PM 79.0 °F - 72.0 °F 79% 29.89 in 10.0 mi East 3.5 mph - N/A   Partly Cloudy
9:53 PM 75.9 °F - 71.1 °F 85% 29.90 in 10.0 mi SSE 9.2 mph - N/A   Scattered Clouds
10:53 PM 75.0 °F - 71.1 °F 87% 29.90 in 10.0 mi Calm Calm - N/A   Partly Cloudy
11:53 PM 73.0 °F - 69.1 °F 87% 29.88 in 10.0 mi ESE 4.6 mph - N/A   Clear